Wainwright, AK

10:55 AM AKDT on June 26, 2017 (GMT -0800)
Wainwright

Weather History for PAWI - July, 2012

Change the Weather History Date:

Thursday, July 12, 2012

  Actual Average (PABR) Record (PABR)
Temperature  
Mean Temperature 46 °F -  
Max Temperature 54 °F 45 °F 73 °F (2009)
Min Temperature 39 °F 34 °F 28 °F (1953)
Degree Days  
Heating Degree Days 19    
Moisture  
Dew Point 38 °F    
Average Humidity 78    
Maximum Humidity 89    
Minimum Humidity 66    
Precipitation  
Precipitation 0.00 in - - ()
Sea Level Pressure  
Sea Level Pressure 29.75 in    
Wind  
Wind Speed 10 mph (North)    
Max Wind Speed 13 mph    
Max Gust Speed -    
Visibility 10 miles    
Events      
Averages and records for this station are not official NWS values.
T = Trace of Precipitation, MM = Missing Value Source: NWS Daily Summary

Daily Weather History Graph

Daily Weather History Graph

Search for Another Location

Airport or City:

Trip Planner

Search our weather history database for the weather conditions in past years. The results will help you decide how hot, cold, wet, or windy it might be!

Date:

Astronomy

Dec. 31, 1969 Rise Set
Actual Time Sun does not set Sun does not set
Civil Twilight Sun does not set Sun does not set
Nautical Twilight Sun does not set Sun does not set
Astronomical Twilight Sun does not set Sun does not set
Moon 11:33 PM AKDT (7/12) 8:19 PM AKDT (7/12)
Length of Visible Light 24h 00m
Length of Day
24h 00m
Waning Crescent, 34% of the Moon is Illuminated
Jul 12
Waning Crescent
Jul 18
New
Jul 26
First Quarter
Aug 1
Full
Aug 9
Last Quarter

Hourly Weather History & Observations

Time (AKDT) Temp. Windchill Dew Point Humidity Pressure Visibility Wind Dir Wind Speed Gust Speed Precip Events Conditions
12:53 AM 45.0 °F 41.2 °F 39.9 °F 82% 29.75 in 10.0 mi NW 6.9 mph - N/A   Clear
1:53 AM 43.0 °F 37.2 °F 39.0 °F 86% 29.75 in 10.0 mi NNW 10.4 mph - N/A   Clear
2:53 AM 42.1 °F 36.1 °F 37.9 °F 85% 29.75 in 10.0 mi NNW 10.4 mph - N/A   Clear
3:53 AM 42.1 °F 35.7 °F 37.0 °F 82% 29.75 in 10.0 mi NNW 11.5 mph - N/A   Clear
4:53 AM 41.0 °F 34.3 °F 37.9 °F 89% 29.75 in 10.0 mi NNW 11.5 mph - N/A   Clear
5:53 AM 41.0 °F 35.8 °F 37.9 °F 89% 29.75 in 10.0 mi North 8.1 mph - N/A   Clear
6:53 AM 42.1 °F 36.6 °F 37.9 °F 85% 29.75 in 10.0 mi North 9.2 mph - N/A   Clear
7:53 AM 43.0 °F 38.2 °F 37.9 °F 82% 29.76 in 10.0 mi NNW 8.1 mph - N/A   Clear
8:53 AM 39.9 °F 33.4 °F 35.1 °F 83% 29.76 in 10.0 mi North 10.4 mph - N/A   Clear
9:53 AM 43.0 °F 38.2 °F 36.0 °F 76% 29.77 in 10.0 mi NNW 8.1 mph - N/A   Clear
10:53 AM 48.0 °F - 39.0 °F 71% 29.76 in 10.0 mi NNW 6.9 mph - N/A   Clear
11:53 AM 43.0 °F 36.8 °F 37.0 °F 80% 29.76 in 10.0 mi NNW 11.5 mph - N/A   Clear
12:53 PM 45.0 °F 40.6 °F 37.0 °F 74% 29.77 in 10.0 mi NNW 8.1 mph - N/A   Clear
1:53 PM 46.0 °F 41.4 °F 37.9 °F 73% 29.76 in 10.0 mi NNW 9.2 mph - N/A   Clear
2:53 PM 44.1 °F 38.1 °F 37.0 °F 76% 29.77 in 10.0 mi North 11.5 mph - N/A   Clear
3:53 PM 44.1 °F 37.7 °F 37.0 °F 76% 29.76 in 10.0 mi North 12.7 mph - N/A   Clear
4:53 PM 44.1 °F 38.1 °F 37.0 °F 76% 29.75 in 10.0 mi North 11.5 mph - N/A   Clear
5:44 PM 44.6 °F 38.4 °F 37.4 °F 76% 29.75 in 9.0 mi North 12.7 mph - N/A   Partly Cloudy
5:53 PM 46.0 °F 40.6 °F 37.9 °F 73% 29.75 in 10.0 mi North 11.5 mph - N/A   Clear
6:53 PM 46.9 °F - 39.0 °F 74% 29.75 in 10.0 mi North 10.4 mph - N/A   Clear
7:53 PM 48.9 °F - 39.9 °F 71% 29.74 in 10.0 mi North 8.1 mph - N/A   Clear
8:53 PM 48.9 °F - 39.9 °F 71% 29.74 in 10.0 mi North 9.2 mph - N/A   Clear
10:53 PM 53.1 °F - 42.1 °F 66% 29.73 in 10.0 mi NE 10.4 mph - N/A   Clear
11:53 PM 51.1 °F - 41.0 °F 68% 29.72 in 10.0 mi NE 12.7 mph - N/A   Mostly Cloudy